[[{"header":{"parameterUnit":"m.s-1","parameterCategory":1,"la1":30.2991,"la2":30.254,"lo1":-89.0895,"lo2":-89.0444,"dy":0.0017,"dx":0.0017,"nx":28,"ny":28,"refTime":"2025-04-02T09:00:00:Z","depth":0,"parameterNumber":2,"parameterNumberName":"U-component_of_WINDS"},"data":[0,0,0,0,0,0,0,0,0,0,0,0,0,0,0,0,0,0,0,0,0,0,0,0,0,0,0,0,0,0,0,0,0,0,0,0,0,0,0,0,0,0,0,0,0,0,0,0,0,0,0,0,0,0,0,0,0,0,-4.0523,-4.0525,0,-4.0648,-4.0649,-4.0651,-4.0643,-4.0641,-4.0639,-4.0638,-4.0766,-4.0771,-4.0776,0,0,0,0,0,0,0,0,0,0,0,0,0,-4.0281,-4.0285,-4.0523,-4.0525,-4.0526,-4.0648,-4.0649,-4.0651,-4.0643,-4.0641,-4.0639,-4.0637,-4.0764,-4.077,-4.0777,0,0,0,0,0,0,0,0,0,0,0,0,0,-4.0394,-4.0287,-4.0523,-4.0537,-4.054,-4.0647,-4.0649,-4.0652,-4.0644,-4.0641,-4.0638,-4.0636,-4.0762,-4.077,-4.0777,-4.0879,0,0,-4.0801,-4.0804,0,0,0,0,0,0,0,0,-4.0387,-4.0403,-4.0533,-4.0536,-4.0539,-4.0627,-4.0611,-4.0728,-4.0645,-4.0604,-4.0638,-4.0634,-4.0722,-4.0733,-4.0762,-4.0885,-4.0891,-4.0802,-4.0806,-4.0809,-4.0812,0,0,0,0,0,0,0,-4.0379,-4.0397,-4.0572,-4.0535,-4.0539,-4.0538,-4.0551,-4.0633,-4.0677,-4.0608,-4.0607,-4.0622,-4.0723,-4.0755,-4.0765,-4.0893,-4.0801,-4.0808,-4.0813,-4.0816,-4.1107,-4.111,0,0,0,0,0,0,-4.0368,-4.0391,-4.0569,-4.0576,-4.0455,-4.0544,-4.0559,-4.0602,-4.0676,-4.0685,-4.0624,-4.0621,-4.0743,-4.0756,-4.077,-4.0894,-4.0809,-4.0817,-4.0821,-4.1104,-4.1108,-4.1111,0,0,0,0,0,0,-4.0363,-4.0384,-4.0564,-4.0484,-4.0506,-4.0552,-4.0599,-4.0606,-4.0637,-4.0689,-4.0697,-4.0648,-4.0742,-4.0759,-4.0852,-4.0899,-4.082,-4.0827,-4.1101,-4.1105,-4.111,-4.1144,0,0,0,0,0,0,-4.0356,-4.0382,-4.0421,-4.0484,-4.0511,-4.0643,-4.0602,-4.061,-4.065,-4.0648,-4.0714,-4.0722,-4.0741,-4.0841,-4.086,-4.0908,-4.0833,-4.1097,-4.1103,-4.1108,-4.1139,-4.1149,-4.1158,0,0,0,0,0,-4.0348,-4.0425,-4.0423,-4.0444,-4.056,-4.0646,-4.0661,-4.0681,-4.0654,-4.0694,-4.0727,-4.072,-4.0891,-4.0851,-4.0872,-4.0923,-4.1094,-4.1101,-4.1108,-4.1134,-4.1147,-4.1158,0,0,0,0,0,0,-4.0366,-4.0434,-4.0432,-4.0532,-4.0584,-4.0645,-4.0695,-4.0694,-4.0753,-4.0748,-4.0771,-4.0786,-4.088,-4.0911,-4.0865,-4.1026,-4.0989,-4.1001,-4.1002,-4.1014,-4.1024,-4.1014,-4.0839,0,0,0,0,0,-4.0382,-4.0446,-4.0502,-4.0586,-4.0611,-4.0649,-4.0687,-4.0698,-4.0752,-4.0774,-4.0814,-4.0867,-4.0933,-4.0976,-4.1039,-4.1144,-4.1159,-4.119,-4.1199,-4.1207,-4.1216,-4.1275,-4.1289,-4.1135,-4.1135,-4.1135,0,0,-4.0415,-4.046,-4.0499,-4.059,-4.0631,-4.0698,-4.0667,-4.0738,-4.0788,-4.0785,-4.0875,-4.0907,-4.0968,-4.1068,-4.1114,-4.1097,-4.1263,-4.1216,-4.1222,-4.1227,-4.1284,-4.1298,-4.1311,-4.114,-4.1139,-4.1138,0,0,-4.0508,-4.0549,-4.0623,-4.0665,-4.0728,-4.0753,-4.0771,-4.0833,-4.0854,-4.0945,-4.0945,-4.1005,-4.1117,-4.1161,-4.1198,-4.1311,-4.1307,-4.1332,-4.1381,-4.1438,-4.145,-4.1461,-4.1501,-4.1515,-4.1341,-4.1341,-4.1341,0,-4.0541,-4.0641,-4.0662,-4.0734,-4.0775,-4.0776,-4.0851,-4.0891,-4.0972,-4.1,-4.098,-4.1122,-4.1163,-4.1274,-4.1301,-4.1332,-4.1353,-4.1323,-4.1447,-4.1458,-4.1468,-4.1507,-4.1522,-4.1344,-4.1343,-4.1343,-4.1343,0,-4.0679,-4.0748,-4.0801,-4.0878,-4.0925,-4.0999,-4.1031,-4.1077,-4.1085,-4.1112,-4.1206,-4.1256,-4.1329,-4.1357,-4.1365,-4.1469,-4.1456,-4.1442,-4.1404,-4.1485,-4.1522,-4.1537,-4.1347,-4.1346,-4.1346,-4.1345,0,0,-4.0785,-4.0875,-4.0893,-4.0929,-4.0999,-4.1054,-4.1128,-4.1201,-4.1239,-4.1295,-4.1358,-4.1455,-4.1442,-4.1484,-4.1498,-4.1548,-4.1635,-4.1527,-4.1529,-4.1545,-4.1752,-4.1762,-4.1779,-4.1633,-4.1636,-4.1638,-4.1747,0,-4.0885,-4.1016,-4.1038,-4.1154,-4.1218,-4.1222,-4.1287,-4.1338,-4.1366,-4.1426,-4.1457,-4.1525,-4.1503,-4.1529,-4.1578,-4.1613,-4.1676,-4.1606,-4.1692,-4.1695,-4.1675,-4.1798,-4.1809,-4.1908,-4.1762,-4.1764,-4.1766,0,-4.1019,-4.1079,-4.1201,-4.1263,-4.1291,-4.1349,-4.1418,-4.1475,-4.1533,-4.1551,-4.1599,-4.1607,-4.1686,-4.1647,-4.1756,-4.1707,-4.1744,-4.1767,-4.1772,-4.1779,-4.1734,-4.1808,-4.1941,-4.1955,-4.1789,-4.1787,-4.1785,0,-4.1084,-4.1195,-4.1282,-4.1313,-4.1388,-4.1429,-4.1463,-4.1518,-4.1561,-4.1622,-4.165,-4.1719,-4.1757,-4.1811,-4.1838,-4.1807,-4.1945,-4.1908,-4.1962,-4.1961,-4.1989,-4.1986,-4.2128,-4.2015,-4.2015,-4.2015,-4.2014,0,-4.1193,-4.1267,-4.1312,-4.1366,-4.145,-4.1475,-4.1558,-4.1591,-4.1641,-4.1701,-4.1709,-4.1766,-4.1799,-4.1862,-4.1884,-4.1971,-4.1988,-4.2004,-4.2009,-4.2003,-4.2001,-4.2026,-4.2019,-4.2019,-4.2018,-4.2017,-4.2016,0,-4.1278,-4.1312,-4.1407,-4.1471,-4.1489,-4.1548,-4.1603,-4.1656,-4.1685,-4.1762,-4.1782,-4.1827,-4.1901,-4.1934,-4.2026,-4.2041,-4.214,-4.214,-4.2119,-4.2121,-4.2172,-4.2166,-4.2334,-4.2358,-4.223,-4.2231,-4.2232,0,-4.1345,-4.1402,-4.1473,-4.1514,-4.1548,-4.1614,-4.1658,-4.1687,-4.1732,-4.1804,-4.1848,-4.1922,-4.1983,-4.2101,-4.2142,-4.2213,-4.2214,-4.2268,-4.2225,-4.2217,-4.2214,-4.221,-4.2216,-4.2275,-4.2277,-4.2278,-4.2279,0,-4.1459,-4.1473,-4.1536,-4.1605,-4.1657,-4.1712,-4.1767,-4.18,-4.1838,-4.1888,-4.1964,-4.2011,-4.2105,-4.2178,-4.2251,-4.2287,-4.2289,-4.2293,-4.2308,-4.2302,-4.2287,-4.2295,-4.214,-4.2288,-4.2287,-4.2286,-4.2286,-4.2285,-4.1537,-4.1588,-4.1646,-4.1716,-4.176,-4.1811,-4.1864,-4.19,-4.1963,-4.2041,-4.2055,-4.2135,-4.2194,-4.2293,-4.2331,-4.2395,-4.2382,-4.2405,-4.2411,-4.2416,-4.2419,-4.2278,-4.2409,-4.2409,-4.2409,-4.2408,-4.2408,0,-4.1651,-4.1689,-4.1753,-4.1829,-4.1884,-4.1883,-4.1943,-4.199,-4.206,-4.2115,-4.2175,-4.2262,-4.2334,-4.2383,-4.2456,-4.2498,-4.2501,-4.2516,-4.2512,-4.2521,-4.2426,-4.2405,-4.2512,-4.2512,-4.2512,-4.2512,-4.2512,-4.2512,-4.1717,-4.1803,-4.1825,-4.1934,-4.1972,-4.205,-4.2085,-4.2133,-4.2177,-4.2274,-4.2334,-4.2365,-4.2418,-4.2495,-4.2561,-4.2574,-4.26,-4.2616,-4.2627,-4.2538,-4.2527,-4.2517,-4.2496,-4.2621,-4.2621,-4.2716,-4.2717,-4.2718]},{"header":{"parameterUnit":"m.s-1","parameterCategory":1,"la1":30.2991,"la2":30.254,"lo1":-89.0895,"lo2":-89.0444,"dy":0.0017,"dx":0.0017,"nx":28,"ny":28,"refTime":"2025-04-02T09:00:00:Z","depth":0,"parameterNumber":3,"parameterNumberName":"V-component_of_WINDS"},"data":[0,0,0,0,0,0,0,0,0,0,0,0,0,0,0,0,0,0,0,0,0,0,0,0,0,0,0,0,0,0,0,0,0,0,0,0,0,0,0,0,0,0,0,0,0,0,0,0,0,0,0,0,0,0,0,0,0,0,5.3394,5.3394,0,5.3408,5.3408,5.3408,5.3374,5.3373,5.3372,5.3371,5.3384,5.3385,5.3387,0,0,0,0,0,0,0,0,0,0,0,0,0,5.3339,5.3341,5.3394,5.3394,5.3394,5.3408,5.3408,5.3408,5.3374,5.3373,5.3372,5.337,5.3384,5.3385,5.3387,0,0,0,0,0,0,0,0,0,0,0,0,0,5.3359,5.3341,5.3394,5.3379,5.3378,5.3407,5.3408,5.3408,5.3374,5.3373,5.3371,5.337,5.3383,5.3385,5.3387,5.3432,0,0,5.3393,5.3394,0,0,0,0,0,0,0,0,5.3358,5.3361,5.3381,5.338,5.3379,5.3387,5.3393,5.3416,5.3375,5.3376,5.3371,5.3369,5.3386,5.3388,5.3394,5.3432,5.3433,5.3394,5.3395,5.3396,5.3396,0,0,0,0,0,0,0,5.3357,5.336,5.3399,5.3381,5.338,5.3372,5.3373,5.3397,5.339,5.3375,5.3373,5.3375,5.3386,5.3392,5.3394,5.3433,5.3393,5.3395,5.3396,5.3397,5.3511,5.3513,0,0,0,0,0,0,5.3357,5.3359,5.3399,5.34,5.3364,5.3374,5.3375,5.3386,5.3389,5.3388,5.3377,5.3374,5.339,5.3392,5.3395,5.3449,5.3396,5.3397,5.3399,5.351,5.3512,5.3514,0,0,0,0,0,0,5.3356,5.3361,5.3398,5.3379,5.3383,5.3377,5.3389,5.3387,5.3394,5.339,5.3389,5.3385,5.3389,5.3392,5.3423,5.3449,5.3398,5.34,5.3507,5.351,5.3513,5.3557,0,0,0,0,0,0,5.3355,5.3361,5.3377,5.3379,5.3384,5.3426,5.3391,5.3389,5.3398,5.3394,5.3398,5.3397,5.3388,5.3421,5.3425,5.3451,5.3402,5.3505,5.3509,5.3512,5.3553,5.356,5.3567,0,0,0,0,0,5.3353,5.3388,5.3378,5.3383,5.3404,5.3428,5.3431,5.3419,5.34,5.3417,5.3415,5.3397,5.3445,5.3424,5.3429,5.3455,5.3503,5.3508,5.3512,5.355,5.3559,5.3567,0,0,0,0,0,0,5.3388,5.3388,5.3377,5.3414,5.3421,5.3422,5.3443,5.3429,5.3442,5.3438,5.3423,5.3425,5.346,5.346,5.3437,5.35,5.3471,5.3476,5.3498,5.3507,5.3514,5.3513,5.3403,0,0,0,0,0,5.34,5.3419,5.3418,5.3451,5.3455,5.3449,5.3458,5.345,5.3456,5.3459,5.3459,5.3467,5.3484,5.3495,5.3511,5.3553,5.3554,5.3574,5.3581,5.3587,5.3592,5.3616,5.3626,5.3527,5.3527,5.3527,0,0,5.3425,5.3427,5.344,5.3458,5.3462,5.3483,5.3451,5.3474,5.3489,5.3462,5.3493,5.3494,5.3501,5.3539,5.3556,5.3541,5.3619,5.3592,5.3597,5.3598,5.3622,5.3631,5.3639,5.353,5.3529,5.3529,0,0,5.3481,5.3484,5.3513,5.3519,5.3527,5.3523,5.353,5.3534,5.3534,5.3564,5.3545,5.3564,5.3593,5.36,5.3607,5.367,5.3654,5.3675,5.3712,5.3737,5.3745,5.3751,5.3775,5.3784,5.368,5.368,5.368,0,5.3511,5.3541,5.3529,5.3554,5.3564,5.3542,5.3572,5.3578,5.359,5.3598,5.3581,5.362,5.3623,5.3663,5.3679,5.3685,5.3694,5.3675,5.3744,5.3751,5.3757,5.378,5.3789,5.3683,5.3683,5.3682,5.3682,0,5.3579,5.36,5.3623,5.3637,5.3649,5.3676,5.3669,5.3683,5.3674,5.3672,5.3705,5.3708,5.3725,5.3734,5.3724,5.3774,5.3765,5.3747,5.3717,5.377,5.3791,5.3799,5.3687,5.3686,5.3685,5.3684,0,0,5.3656,5.3665,5.3674,5.3681,5.369,5.3706,5.3734,5.3751,5.3764,5.3774,5.3797,5.3824,5.3808,5.3817,5.3808,5.383,5.3882,5.3809,5.3809,5.3824,5.3939,5.3953,5.3963,5.3871,5.3873,5.3874,5.3939,0,5.3713,5.376,5.3751,5.3797,5.3819,5.3799,5.3823,5.3832,5.3831,5.3849,5.3849,5.3869,5.3845,5.3851,5.3871,5.3871,5.3905,5.3866,5.3894,5.3895,5.3894,5.3974,5.3989,5.4049,5.3947,5.3948,5.3949,0,5.3785,5.38,5.3848,5.3856,5.3865,5.3886,5.3903,5.3921,5.3931,5.3929,5.394,5.3928,5.3957,5.3927,5.3967,5.3941,5.3952,5.3954,5.3956,5.3959,5.3926,5.398,5.4068,5.4078,5.3962,5.3961,5.396,0,5.3839,5.387,5.3904,5.3911,5.3921,5.3937,5.3942,5.395,5.3962,5.3977,5.3985,5.4002,5.4012,5.4027,5.4021,5.3999,5.4062,5.4031,5.4063,5.4063,5.4077,5.4076,5.4169,5.4083,5.4082,5.4082,5.4082,0,5.3904,5.3935,5.3929,5.395,5.3985,5.3975,5.401,5.4013,5.4021,5.4043,5.4026,5.4047,5.4038,5.4058,5.4053,5.4088,5.4092,5.4093,5.4091,5.4095,5.4095,5.4102,5.4098,5.4085,5.4084,5.4084,5.4083,0,5.397,5.3967,5.4003,5.401,5.4013,5.4038,5.4044,5.4065,5.4064,5.4092,5.4098,5.4096,5.412,5.4115,5.4141,5.4138,5.4182,5.4175,5.4179,5.4178,5.421,5.4208,5.4311,5.4325,5.4229,5.423,5.423,0,5.4012,5.4036,5.4046,5.406,5.4067,5.4089,5.4102,5.4094,5.4108,5.4123,5.4142,5.4164,5.4182,5.422,5.4222,5.4242,5.4236,5.4271,5.4239,5.4242,5.4238,5.4238,5.4241,5.4277,5.4279,5.4279,5.428,0,5.4088,5.4086,5.4105,5.4125,5.4141,5.4156,5.417,5.4182,5.4176,5.4193,5.4217,5.4231,5.4258,5.4281,5.43,5.4306,5.4293,5.4291,5.4299,5.4303,5.4306,5.4307,5.4198,5.4288,5.4287,5.4287,5.4286,5.4286,5.4145,5.4166,5.4177,5.42,5.421,5.4223,5.4243,5.4246,5.4266,5.4289,5.4283,5.4311,5.4323,5.4348,5.4355,5.4378,5.4365,5.4377,5.438,5.4383,5.4388,5.4302,5.4381,5.4381,5.4381,5.438,5.438,0,5.4221,5.4228,5.4249,5.427,5.4288,5.4275,5.429,5.4306,5.4331,5.4344,5.4362,5.4391,5.4414,5.4419,5.4441,5.4458,5.4453,5.4464,5.4463,5.4465,5.4398,5.4389,5.4468,5.4468,5.4468,5.4468,5.4468,5.4468,5.4264,5.43,5.43,5.4341,5.4347,5.4376,5.4386,5.4399,5.4409,5.4443,5.4462,5.4465,5.4474,5.4498,5.4518,5.4519,5.4529,5.4543,5.4542,5.4478,5.447,5.4461,5.4453,5.4545,5.4545,5.4607,5.4608,5.4608]}]]